Pardubice, Czech Republic

10:45 PM CEST on June 24, 2017 (GMT +0200)
Pardubice

Weather History for LKPD - March, 2012

Change the Weather History Date:

Monday, March 26, 2012

  Actual Average Record
Temperature  
Mean Temperature 48 °F -  
Max Temperature 57 °F - - ()
Min Temperature 35 °F - - ()
Degree Days  
Heating Degree Days 17    
Moisture  
Dew Point 27 °F    
Average Humidity 49    
Maximum Humidity 71    
Minimum Humidity 24    
Precipitation  
Precipitation 0.00 in - - ()
Sea Level Pressure  
Sea Level Pressure 30.46 in    
Wind  
Wind Speed 3 mph ()    
Max Wind Speed 7 mph    
Max Gust Speed -    
T = Trace of Precipitation, MM = Missing Value Source: Averaged Metar Reports

Daily Weather History Graph

Daily Weather History Graph

Search for Another Location

Airport or City:

Trip Planner

Search our weather history database for the weather conditions in past years. The results will help you decide how hot, cold, wet, or windy it might be!

Date:

Astronomy

Mar. 26, 2012 Rise Set
Actual Time 6:46 AM CEST 7:19 PM CEST
Civil Twilight 6:13 AM CEST 7:52 PM CEST
Nautical Twilight 5:35 AM CEST 8:31 PM CEST
Astronomical Twilight 4:54 AM CEST 9:12 PM CEST
Moon 7:59 AM CEST (3/26) 11:42 PM CEST (3/26)
Length of Visible Light 13h 38m
Length of Day
12h 33m
Waxing Crescent, 13% of the Moon is Illuminated
Mar 26
Waxing Crescent
Mar 30
First Quarter
Apr 6
Full
Apr 13
Last Quarter
Apr 21
New

Hourly Weather History & Observations

Time (CEST) Temp. Windchill Dew Point Humidity Pressure Visibility Wind Dir Wind Speed Gust Speed Precip Events Conditions
12:00 AM 44.6 °F - 32.0 °F 61% 30.39 in - Calm Calm - N/A   Clear
1:00 AM 50.0 °F - 35.6 °F 58% 30.39 in - NNE 6.9 mph - N/A   Clear
2:00 AM 48.2 °F - 35.6 °F 62% 30.42 in - NNE 5.8 mph - N/A   Clear
3:00 AM 44.6 °F - 35.6 °F 71% 30.42 in - Variable 2.3 mph - N/A   Clear
4:00 AM 44.6 °F 41.4 °F 33.8 °F 66% 30.42 in - NE 5.8 mph - N/A   Clear
5:00 AM 42.8 °F 40.1 °F 30.2 °F 61% 30.45 in - NNE 4.6 mph - N/A   Clear
6:00 AM 41.0 °F 37.1 °F 30.2 °F 65% 30.45 in - North 5.8 mph - N/A   Clear
7:00 AM 39.2 °F 35.0 °F 30.2 °F 70% 30.45 in - NNE 5.8 mph - N/A   Clear
8:00 AM 39.2 °F - 30.2 °F 70% 30.48 in - Variable 2.3 mph - N/A   Clear
9:00 AM 42.8 °F 40.1 °F 30.2 °F 61% 30.48 in - NE 4.6 mph - N/A   Clear
10:00 AM 44.6 °F 43.1 °F 28.4 °F 53% 30.51 in - NE 3.5 mph - N/A   Clear
11:00 AM 48.2 °F - 26.6 °F 43% 30.51 in - Variable 1.2 mph - N/A   Clear
12:00 PM 50.0 °F - 19.4 °F 30% 30.51 in - North 4.6 mph - N/A   Clear
1:00 PM 51.8 °F - 15.8 °F 24% 30.51 in - NNE 6.9 mph - N/A   Clear
2:00 PM 53.6 °F - 19.4 °F 26% 30.51 in - NNW 6.9 mph - N/A   Clear
3:00 PM 55.4 °F - 23.0 °F 29% 30.48 in - North 6.9 mph - N/A   Clear
4:00 PM 57.2 °F - 24.8 °F 29% 30.48 in - North 5.8 mph - N/A   Clear
5:00 PM 57.2 °F - 23.0 °F 27% 30.45 in - North 4.6 mph - N/A   Clear
6:00 PM 57.2 °F - 24.8 °F 29% 30.45 in - NNE 3.5 mph - N/A   Clear
7:00 PM 53.6 °F - 19.4 °F 26% 30.45 in - East 5.8 mph - N/A   Clear
8:00 PM 48.2 °F - 21.2 °F 34% 30.45 in - Calm Calm - N/A   Clear
9:00 PM 42.8 °F - 23.0 °F 46% 30.45 in - Calm Calm - N/A   Clear
10:00 PM 39.2 °F - 24.8 °F 56% 30.48 in - Variable 2.3 mph - N/A   Clear
11:00 PM 35.6 °F - 26.6 °F 70% 30.48 in - Calm Calm - N/A   Clear